Total_Precipitation_Accumulation
3.21 3.40 4.18 3.98 3.64 3.40 3.22 3.10 2.93 2.90 3.05 3.21 3.16 3.15 3.15 3.20 3.34 3.47 3.65 3.78 4.03 4.37 4.63 4.68 4.37 4.45 4.39 4.28 3.90 3.34 2.91 2.85 2.80 2.59 2.46 2.48 2.36 2.49 2.91 3.11 2.88 2.30 2.27
2.71 3.03 3.69 3.63 3.43 3.22 3.04 2.99 2.88 2.86 3.04 3.19 3.21 3.14 3.19 3.17 3.23 3.27 3.47 3.86 4.22 4.46 4.63 4.32 4.12 4.24 4.17 4.10 3.64 3.19 2.82 2.73 2.69 2.72 2.59 2.24 2.37 2.71 3.11 3.20 3.19 2.41 2.28
2.33 2.65 2.81 3.20 3.17 3.02 2.89 2.97 3.30 3.36 3.32 3.21 3.17 3.06 3.08 3.08 3.15 3.30 3.58 3.89 4.19 4.22 4.24 4.05 3.90 3.86 3.78 3.69 3.36 3.01 2.79 2.65 2.67 2.87 3.02 2.14 1.93 2.66 2.97 3.05 2.81 2.21 2.02
2.13 2.36 2.44 2.92 2.89 2.66 2.79 3.02 3.33 3.51 3.46 3.34 3.21 3.04 2.98 3.11 3.28 3.43 3.46 3.64 3.87 3.81 3.59 3.63 3.73 3.70 3.62 3.37 3.08 2.91 2.81 2.76 2.93 3.25 3.26 2.32 1.77 2.24 2.70 2.67 2.38 2.04 1.85
2.07 2.30 2.66 2.81 2.66 2.54 2.68 2.95 3.27 3.44 3.35 3.29 3.20 3.07 3.12 3.08 3.12 3.18 3.18 3.41 3.57 3.60 3.45 3.33 3.47 3.63 3.63 3.40 3.07 2.92 2.80 2.86 3.22 3.20 2.75 2.61 2.50 2.46 2.52 2.48 2.29 2.06 1.92
1.72 2.06 2.51 2.75 2.64 2.59 2.88 3.07 3.19 3.23 3.13 3.08 3.05 3.09 3.06 2.94 2.97 2.95 2.95 3.07 3.34 3.39 3.14 3.05 3.35 3.68 3.74 3.42 3.03 3.06 3.07 3.18 3.10 2.52 2.33 2.33 2.44 2.54 2.48 2.57 2.53 2.30 2.12
1.62 1.93 2.36 2.74 2.60 2.60 2.76 2.99 3.23 3.31 3.18 2.98 2.90 2.80 2.80 2.85 2.87 2.79 2.63 2.73 2.97 3.00 2.83 2.86 3.30 3.58 3.59 3.32 3.11 3.31 3.27 3.26 2.80 2.35 2.19 2.41 2.27 2.18 2.35 2.62 2.83 2.60 2.26
1.41 1.69 2.03 2.52 2.52 2.46 2.52 2.71 2.92 3.03 2.97 2.81 2.61 2.53 2.58 2.62 2.61 2.56 2.49 2.66 2.66 2.58 2.65 2.85 3.31 3.16 3.16 3.30 3.32 3.54 3.42 2.88 2.22 2.21 2.07 2.12 1.79 1.90 2.33 2.59 2.72 2.55 2.25
1.30 1.44 1.80 2.19 2.37 2.42 2.60 2.67 2.59 2.56 2.46 2.36 2.22 2.30 2.44 2.50 2.39 2.33 2.38 2.52 2.47 2.51 2.72 3.02 3.24 2.93 2.99 3.31 3.37 3.44 3.30 2.78 2.19 2.18 1.97 2.17 1.99 2.19 2.58 2.65 2.56 2.52 2.25
1.55 1.58 1.81 2.00 2.13 2.23 2.37 2.51 2.46 2.41 2.20 2.06 2.03 2.12 2.20 2.28 2.28 2.19 2.17 2.40 2.40 2.51 2.61 2.89 2.99 2.78 3.05 3.29 3.37 3.32 3.16 2.58 2.01 2.04 2.13 1.97 2.10 2.50 2.87 2.88 2.79 2.72 2.51
1.87 1.90 1.88 1.84 1.86 2.05 2.12 2.21 2.46 2.46 2.30 2.17 2.24 2.28 2.31 2.34 2.13 2.10 2.16 2.56 2.57 2.69 2.79 2.97 3.04 3.23 3.34 3.20 3.39 3.31 2.89 2.41 2.34 2.30 2.32 2.01 2.26 2.80 3.09 3.06 3.02 3.07 2.89
2.00 2.05 2.09 1.99 1.79 1.92 1.96 2.27 2.48 2.17 2.24 2.32 2.45 2.29 2.31 2.44 2.42 2.13 2.52 2.83 3.01 3.28 3.39 3.54 3.70 3.57 3.26 3.27 3.75 3.62 2.73 2.59 2.43 2.41 2.67 2.41 2.58 3.17 3.48 3.31 3.18 3.27 3.18
2.05 1.85 2.05 2.32 2.25 2.22 2.33 2.23 2.27 2.31 2.46 2.42 2.21 2.17 2.36 2.10 1.97 2.19 2.54 2.84 3.12 3.46 3.76 4.00 4.07 3.70 3.67 3.94 4.05 3.58 2.81 2.50 2.45 2.24 2.61 2.63 2.83 3.43 3.90 3.73 3.55 3.53 3.49
2.27 1.94 1.95 2.20 2.50 2.48 2.35 2.27 2.17 2.15 2.25 2.21 2.32 2.15 2.31 2.33 2.34 2.57 3.06 3.18 3.42 3.56 4.11 4.20 4.54 4.28 3.95 3.65 3.69 3.50 3.05 2.90 2.67 2.71 2.99 2.55 2.73 3.34 4.06 4.16 4.01 3.83 3.63
2.57 2.28 2.14 2.12 2.44 2.56 2.59 2.44 2.12 2.22 2.19 2.34 2.49 2.37 2.41 2.54 2.89 3.20 3.32 3.70 3.64 3.69 4.08 4.52 4.50 4.77 4.72 4.50 4.16 3.80 3.67 3.39 3.07 3.14 3.17 2.93 2.83 3.12 3.86 4.44 4.40 4.19 3.90
2.89 2.76 2.46 2.32 2.46 2.59 2.67 2.67 2.59 2.49 2.66 2.67 2.75 2.74 2.82 3.05 3.43 3.80 3.88 4.03 3.86 3.87 4.34 4.67 4.76 5.36 5.18 4.91 4.34 4.03 3.81 3.64 3.31 3.15 3.32 3.45 2.99 2.87 3.40 4.31 4.75 4.66 4.48
3.07 3.17 3.04 2.89 2.95 3.07 3.37 3.30 3.01 3.04 3.04 3.14 3.28 3.33 3.27 3.40 3.90 4.23 4.21 4.11 4.13 4.15 4.57 4.86 5.00 5.17 4.85 4.62 4.46 4.25 4.05 3.79 3.34 3.31 3.33 3.57 3.35 3.10 3.34 3.82 4.42 4.67 4.84
3.13 3.55 3.62 3.35 3.58 3.82 4.11 4.13 3.77 3.71 3.65 3.63 3.54 3.57 3.52 3.65 3.95 4.53 4.31 4.14 4.56 4.40 4.71 5.35 5.39 5.32 5.27 4.98 4.77 4.31 4.03 3.84 3.29 3.22 3.22 3.45 3.83 3.29 3.35 3.75 4.08 4.29 4.91
3.18 3.75 4.03 4.15 4.38 4.48 4.62 4.68 4.47 4.31 4.14 3.78 3.75 3.76 3.62 3.70 3.88 4.36 4.25 4.37 4.38 4.76 5.00 4.62 5.38 5.52 5.35 5.02 4.27 4.05 3.66 3.50 3.42 3.07 3.20 3.25 3.65 3.49 3.53 3.61 3.88 4.10 4.85
3.45 3.96 4.55 4.85 5.04 4.86 4.86 4.94 4.69 4.28 4.11 3.89 3.85 3.81 3.61 3.71 3.76 4.31 4.18 4.16 4.19 4.72 4.95 4.91 5.40 5.38 5.01 4.85 3.77 3.63 3.49 3.11 3.05 3.10 2.90 3.12 3.40 3.08 3.35 3.68 4.11 3.63 3.97
3.94 4.27 4.64 5.16 5.50 5.42 5.51 5.44 5.28 4.92 4.66 4.22 3.75 3.41 3.36 3.36 3.61 4.21 3.89 4.36 4.27 4.46 4.57 4.55 4.95 5.09 4.68 4.63 4.52 4.04 3.23 2.77 2.72 2.72 2.76 2.97 2.98 3.12 3.80 4.38 4.54 4.37 4.12
3.75 4.27 4.72 4.81 4.80 4.69 4.98 5.38 5.56 5.50 4.95 4.25 3.84 3.73 3.36 3.26 3.45 3.74 4.14 4.06 4.13 4.34 4.35 4.39 4.76 4.71 4.24 4.35 4.63 4.69 3.87 3.49 2.90 2.22 2.55 2.70 2.83 3.27 3.60 3.84 4.23 4.61 4.76
3.19 3.75 3.96 3.94 3.88 3.79 3.95 4.36 4.66 4.98 4.77 4.41 4.06 3.79 3.35 3.21 3.24 3.44 3.79 3.87 3.96 3.81 4.06 4.29 4.26 4.31 4.27 4.18 4.20 4.72 4.38 3.91 3.25 2.56 2.34 2.46 2.87 3.21 3.29 3.56 3.59 3.93 4.26
2.41 2.68 2.83 3.06 3.24 3.30 3.35 3.56 3.83 4.14 4.20 4.20 4.12 3.76 3.36 3.04 3.02 3.20 3.37 3.42 3.50 3.45 3.77 3.47 3.63 4.02 4.30 4.16 3.99 3.86 3.94 4.12 3.97 3.22 2.62 2.46 2.76 2.95 2.95 2.92 3.23 3.67 3.80
2.17 2.40 2.53 2.87 3.08 3.20 3.19 3.27 3.50 3.83 3.85 3.67 3.56 3.66 3.43 3.14 2.88 2.82 3.04 3.17 3.17 3.10 3.24 3.30 3.70 3.66 3.86 3.90 3.90 3.85 3.94 3.98 3.78 3.59 3.16 2.96 2.85 2.54 2.52 2.71 3.04 3.38 3.57
1.95 2.16 2.40 2.68 2.72 2.83 2.89 2.90 2.96 3.19 3.36 3.23 3.13 3.16 3.04 2.92 2.83 2.74 2.81 3.00 2.92 2.91 3.07 3.23 3.36 3.37 3.51 3.62 3.60 3.64 3.96 3.85 3.75 3.82 3.36 3.15 3.00 2.61 2.55 2.64 2.81 3.14 3.34